SWA4204 KDEN-KSEA

Flight info

Callsign SWA4204
Flight time N/A
Altitude 34000
Route ZIMMR4 CHNGY PIH PDT CHINS5
Aircraft B737/M-SADE2E3GIJ4RWZ/LB1D1

Departure

Time 2026-05-03 21:51
Airport Denver International Airport (KDEN)

Arrival

Time N/A
Airport Seattle–Tacoma International Airport (KSEA)
Time Latitude Longitude Altitude Speed Heading
2026-05-03 21:24 39.86367 -104.67155 5376 ft 0 kts 213°
2026-05-03 21:42 39.86378 -104.67146 5374 ft 4 kts 210°
2026-05-03 21:42 39.86402 -104.67129 5373 ft 4 kts 217°
2026-05-03 21:42 39.86415 -104.67108 5371 ft 2 kts 270°
2026-05-03 21:43 39.86415 -104.67106 5371 ft 0 kts 270°
2026-05-03 21:46 39.86415 -104.67110 5371 ft 2 kts 269°
2026-05-03 21:46 39.86413 -104.67155 5374 ft 8 kts 268°
2026-05-03 21:46 39.86412 -104.67255 5374 ft 13 kts 270°
2026-05-03 21:47 39.86413 -104.67380 5376 ft 15 kts 270°
2026-05-03 21:47 39.86413 -104.67508 5376 ft 14 kts 269°
2026-05-03 21:47 39.86414 -104.67632 5376 ft 13 kts 271°
2026-05-03 21:47 39.86415 -104.67749 5376 ft 13 kts 271°
2026-05-03 21:48 39.86417 -104.67864 5376 ft 13 kts 271°
2026-05-03 21:48 39.86418 -104.67978 5374 ft 13 kts 271°
2026-05-03 21:48 39.86420 -104.68095 5372 ft 13 kts 271°
2026-05-03 21:48 39.86422 -104.68209 5369 ft 12 kts 274°
2026-05-03 21:49 39.86425 -104.68322 5367 ft 13 kts 271°
2026-05-03 21:49 39.86426 -104.68455 5361 ft 17 kts 270°
2026-05-03 21:49 39.86427 -104.68613 5362 ft 17 kts 270°
2026-05-03 21:49 39.86448 -104.68711 5360 ft 9 kts 329°
2026-05-03 21:50 39.86467 -104.68717 5362 ft 0 kts 356°
2026-05-03 21:50 39.86472 -104.68717 5362 ft 7 kts 356°
2026-05-03 21:50 39.86641 -104.68717 5362 ft 42 kts
2026-05-03 21:50 39.87143 -104.68711 5359 ft 103 kts
2026-05-03 21:51 39.88038 -104.68707 5362 ft 152 kts 357°
2026-05-03 21:51 39.89204 -104.68747 5589 ft 175 kts 353°
2026-05-03 21:51 39.90447 -104.68806 6354 ft 177 kts 356°
2026-05-03 21:51 39.91589 -104.68949 7151 ft 160 kts 328°
2026-05-03 21:52 39.92423 -104.69905 7509 ft 171 kts 306°
2026-05-03 21:52 39.92989 -104.71372 7758 ft 195 kts 280°
2026-05-03 21:52 39.93074 -104.73253 7935 ft 222 kts 274°
2026-05-03 21:52 39.93100 -104.75391 8177 ft 251 kts 273°
2026-05-03 21:53 39.93120 -104.77751 8583 ft 272 kts 272°
2026-05-03 21:53 39.93137 -104.80214 9515 ft 273 kts 272°
2026-05-03 21:53 39.93154 -104.82682 9846 ft 272 kts 272°
2026-05-03 21:53 39.93173 -104.85211 9936 ft 284 kts 271°
2026-05-03 21:54 39.93192 -104.87777 9929 ft 281 kts 272°
2026-05-03 21:54 39.93210 -104.90298 9920 ft 277 kts 271°
2026-05-03 21:54 39.93258 -104.92821 10089 ft 282 kts 273°
2026-05-03 21:54 39.93323 -104.95399 10919 ft 284 kts 273°
2026-05-03 21:55 39.93387 -104.97978 11874 ft 286 kts 272°
2026-05-03 21:55 39.93448 -105.00585 12830 ft 289 kts 273°
2026-05-03 21:55 39.93510 -105.03211 13911 ft 290 kts 273°
2026-05-03 21:55 39.93571 -105.05850 14716 ft 295 kts 272°
2026-05-03 21:56 39.93632 -105.08541 15505 ft 299 kts 272°
2026-05-03 21:56 39.93692 -105.11245 16311 ft 303 kts 272°
2026-05-03 21:56 39.93754 -105.14015 17224 ft 305 kts 272°
2026-05-03 21:56 39.93815 -105.16812 17966 ft 311 kts 272°
2026-05-03 21:57 39.93876 -105.19650 18743 ft 314 kts 271°
2026-05-03 21:57 39.93941 -105.22455 19549 ft 315 kts 273°
2026-05-03 21:57 39.94121 -105.25314 20228 ft 319 kts 276°
2026-05-03 21:57 39.94369 -105.28205 20944 ft 323 kts 276°
2026-05-03 21:58 39.94617 -105.31101 21799 ft 320 kts 276°
2026-05-03 21:58 39.94855 -105.33996 22483 ft 325 kts 276°
2026-05-03 21:58 39.95091 -105.36967 23101 ft 332 kts 276°
2026-05-03 21:58 39.95327 -105.39970 23772 ft 336 kts 275°
2026-05-03 21:59 39.95568 -105.43041 23896 ft 355 kts 276°
2026-05-03 21:59 39.95825 -105.46320 24038 ft 372 kts 276°
2026-05-03 21:59 39.96090 -105.49705 24444 ft 379 kts 276°
2026-05-03 21:59 39.96356 -105.53124 25062 ft 380 kts 276°
2026-05-03 22:00 39.96622 -105.56559 25721 ft 380 kts 276°
2026-05-03 22:00 39.96885 -105.59992 26344 ft 382 kts 276°
2026-05-03 22:00 39.97147 -105.63445 26900 ft 384 kts 276°
2026-05-03 22:00 39.97407 -105.66925 27434 ft 388 kts 275°
2026-05-03 22:01 39.97619 -105.70487 27519 ft 402 kts 274°
2026-05-03 22:01 39.97801 -105.74173 27795 ft 410 kts 274°
2026-05-03 22:01 39.97974 -105.77890 28300 ft 412 kts 273°
2026-05-03 22:01 39.98147 -105.81613 28877 ft 412 kts 274°
2026-05-03 22:02 39.98324 -105.85346 29362 ft 413 kts 274°
2026-05-03 22:02 39.98504 -105.89103 29775 ft 416 kts 274°
2026-05-03 22:02 39.98685 -105.92829 30173 ft 419 kts 274°
2026-05-03 22:02 39.98869 -105.96626 30536 ft 421 kts 274°
2026-05-03 22:03 39.99054 -106.00444 30937 ft 422 kts 274°
2026-05-03 22:03 39.99238 -106.04249 31449 ft 420 kts 274°
2026-05-03 22:03 39.99419 -106.08032 32020 ft 416 kts 274°
2026-05-03 22:03 39.99597 -106.11791 32524 ft 414 kts 274°
2026-05-03 22:04 39.99774 -106.15535 32886 ft 415 kts 274°
2026-05-03 22:04 39.99950 -106.19303 33240 ft 416 kts 274°
2026-05-03 22:04 40.00125 -106.23060 33669 ft 414 kts 274°
2026-05-03 22:04 40.00297 -106.26797 33986 ft 416 kts 274°
2026-05-03 22:05 40.00644 -106.34384 33976 ft 418 kts 274°
2026-05-03 22:05 40.00981 -106.41849 33957 ft 413 kts 274°
2026-05-03 22:06 40.02305 -106.49100 33948 ft 414 kts 297°
2026-05-03 22:06 40.05439 -106.55423 33965 ft 416 kts 302°
2026-05-03 22:07 40.08700 -106.61670 33959 ft 417 kts 302°
2026-05-03 22:07 40.11924 -106.67918 33956 ft 417 kts 301°
2026-05-03 22:08 40.15144 -106.74242 33953 ft 419 kts 301°
2026-05-03 22:08 40.18357 -106.80594 33973 ft 420 kts 301°
2026-05-03 22:09 40.21579 -106.86982 33986 ft 421 kts 301°
2026-05-03 22:10 40.26415 -106.96597 33982 ft 422 kts 301°
2026-05-03 22:10 40.29638 -107.03022 34020 ft 422 kts 301°
2026-05-03 22:11 40.32861 -107.09459 34026 ft 423 kts 301°
2026-05-03 22:11 40.36066 -107.15872 34044 ft 423 kts 301°
2026-05-03 22:12 40.39285 -107.22328 34069 ft 424 kts 301°
2026-05-03 22:12 40.42513 -107.28814 34070 ft 424 kts 301°
2026-05-03 22:13 40.45735 -107.35302 34069 ft 424 kts 301°
2026-05-03 22:13 40.48957 -107.41804 34043 ft 425 kts 301°
2026-05-03 22:14 40.52156 -107.48273 34044 ft 425 kts 301°
2026-05-03 22:14 40.55374 -107.54792 34047 ft 425 kts 301°
2026-05-03 22:15 40.58591 -107.61326 34030 ft 425 kts 301°
2026-05-03 22:15 40.61801 -107.67857 34024 ft 425 kts 301°
2026-05-03 22:16 40.65007 -107.74395 33991 ft 425 kts 301°
2026-05-03 22:16 40.68210 -107.80941 33952 ft 425 kts 301°
2026-05-03 22:17 40.71416 -107.87506 33918 ft 426 kts 301°
2026-05-03 22:17 40.74614 -107.94069 33905 ft 426 kts 301°
2026-05-03 22:18 40.77793 -108.00607 33925 ft 426 kts 301°
2026-05-03 22:18 40.80985 -108.07185 33900 ft 426 kts 301°
2026-05-03 22:19 40.84170 -108.13761 33906 ft 425 kts 301°
2026-05-03 22:19 40.87350 -108.20343 33891 ft 425 kts 301°
2026-05-03 22:20 40.90519 -108.26916 33910 ft 424 kts 301°
2026-05-03 22:20 40.93684 -108.33495 33917 ft 424 kts 300°
2026-05-03 22:21 40.96841 -108.40071 33903 ft 423 kts 300°
2026-05-03 22:21 40.99994 -108.46652 33895 ft 423 kts 300°
2026-05-03 22:22 41.03136 -108.53226 33911 ft 423 kts 300°
2026-05-03 22:22 41.06258 -108.59772 33909 ft 423 kts 300°
2026-05-03 22:23 41.09386 -108.66342 33914 ft 416 kts 300°
2026-05-03 22:23 41.12425 -108.72736 33901 ft 407 kts 300°
2026-05-03 22:24 41.15444 -108.79109 33911 ft 409 kts 300°
2026-05-03 22:24 41.18473 -108.85515 33914 ft 410 kts 300°
2026-05-03 22:25 41.21507 -108.91945 33919 ft 412 kts 300°
2026-05-03 22:25 41.24530 -108.98364 33920 ft 413 kts 300°
2026-05-03 22:26 41.27574 -109.04840 33914 ft 414 kts 300°
2026-05-03 22:26 41.30623 -109.11340 33919 ft 414 kts 300°
2026-05-03 22:27 41.33665 -109.17839 33916 ft 414 kts 300°
2026-05-03 22:27 41.36711 -109.24363 33918 ft 415 kts 300°
2026-05-03 22:28 41.39751 -109.30886 33920 ft 414 kts 300°
2026-05-03 22:28 41.42780 -109.37397 33904 ft 413 kts 300°
2026-05-03 22:29 41.45776 -109.43854 33894 ft 411 kts 300°
2026-05-03 22:29 41.48778 -109.50339 33911 ft 410 kts 300°
2026-05-03 22:30 41.51771 -109.56816 33893 ft 411 kts 300°
2026-05-03 22:30 41.54768 -109.63317 33902 ft 411 kts 300°
2026-05-03 22:31 41.57764 -109.69829 33889 ft 411 kts 300°
2026-05-03 22:31 41.60754 -109.76342 33886 ft 411 kts 300°
2026-05-03 22:32 41.63714 -109.82805 33878 ft 411 kts 300°
2026-05-03 22:32 41.66694 -109.89324 33893 ft 411 kts 300°
2026-05-03 22:33 41.69675 -109.95859 33892 ft 412 kts 299°
2026-05-03 22:33 41.72654 -110.02406 33881 ft 412 kts 299°
2026-05-03 22:34 41.75625 -110.08946 33893 ft 411 kts 299°
2026-05-03 22:34 41.78586 -110.15482 33915 ft 411 kts 299°
2026-05-03 22:35 41.81548 -110.22033 33989 ft 411 kts 299°
2026-05-03 22:35 41.84493 -110.28559 34014 ft 412 kts 299°
2026-05-03 22:36 41.87453 -110.35135 34043 ft 412 kts 299°
2026-05-03 22:36 41.90416 -110.41731 34067 ft 412 kts 299°
2026-05-03 22:37 41.93368 -110.48316 34065 ft 412 kts 299°
2026-05-03 22:37 41.96321 -110.54919 34074 ft 412 kts 299°
2026-05-03 22:38 41.99269 -110.61525 34047 ft 412 kts 299°
2026-05-03 22:38 42.00740 -110.64827 33929 ft 412 kts 299°
2026-05-03 22:38 42.02212 -110.68136 33923 ft 412 kts 299°
2026-05-03 22:39 42.05131 -110.74706 33923 ft 411 kts 299°
2026-05-03 22:39 42.08056 -110.81304 33929 ft 411 kts 299°
2026-05-03 22:40 42.10982 -110.87919 33934 ft 411 kts 299°
2026-05-03 22:40 42.13408 -110.93415 33926 ft 411 kts 299°
2026-05-03 22:41 42.16322 -111.00029 33932 ft 410 kts 299°
2026-05-03 22:41 42.19232 -111.06650 33931 ft 410 kts 299°
2026-05-03 22:42 42.22134 -111.13267 33929 ft 410 kts 299°
2026-05-03 22:42 42.25035 -111.19898 33943 ft 410 kts 298°
2026-05-03 22:43 42.27937 -111.26544 33939 ft 411 kts 298°
2026-05-03 22:43 42.30835 -111.33198 33942 ft 412 kts 298°
2026-05-03 22:44 42.33717 -111.39829 33941 ft 412 kts 298°
2026-05-03 22:44 42.36616 -111.46512 33950 ft 412 kts 298°
2026-05-03 22:45 42.39507 -111.53194 33944 ft 411 kts 298°
2026-05-03 22:45 42.42386 -111.59863 33943 ft 410 kts 298°
2026-05-03 22:46 42.45256 -111.66525 33941 ft 409 kts 298°
2026-05-03 22:46 42.48096 -111.73134 33941 ft 409 kts 298°
2026-05-03 22:47 42.50950 -111.79790 33965 ft 408 kts 298°
2026-05-03 22:47 42.53795 -111.86441 33948 ft 408 kts 298°
2026-05-03 22:48 42.56643 -111.93112 33955 ft 408 kts 298°
2026-05-03 22:48 42.59482 -111.99778 33954 ft 409 kts 298°
2026-05-03 22:49 42.62308 -112.06430 33945 ft 410 kts 298°
2026-05-03 22:49 42.65171 -112.13183 33933 ft 410 kts 298°
2026-05-03 22:50 42.67997 -112.19864 33935 ft 411 kts 298°
2026-05-03 22:50 42.70848 -112.26622 33931 ft 412 kts 298°
2026-05-03 22:51 42.73697 -112.33387 33931 ft 413 kts 298°
2026-05-03 22:51 42.76548 -112.40176 33939 ft 413 kts 298°
2026-05-03 22:52 42.79393 -112.46965 33924 ft 412 kts 298°
2026-05-03 22:52 42.82207 -112.53696 33903 ft 411 kts 298°
2026-05-03 22:53 42.85031 -112.60466 33905 ft 411 kts 298°
2026-05-03 22:53 42.87918 -112.67183 33899 ft 411 kts 301°
2026-05-03 22:54 42.91120 -112.73652 33973 ft 412 kts 303°
2026-05-03 22:54 42.94382 -112.80082 33953 ft 412 kts 303°